When you browse on this site, cookies collect data to enhance your experience and personalize the content and advertising you see.
Visit our Privacy Policy to learn more. By continuing to use the site, you agree to this use of cookies and data.
  • In Sweden
  • List of Countries
  • For 7 days
  • Water Temperature
  • Weather Map
  • Weather Widgets
  • user-avatar
    Login

    Hourly Weather Goiania

    Today, 19 November, Tuesday

    Time Temperature Precipitation Wind Pressure Humidity
    00:00 +23°C° 0.2 mm 1 mps 699 mmHg 91%
    01:00 +23°C° 0.1 mm 1 mps 698 mmHg 91%
    02:00 +21°C° 0.1 mm 0 mps 698 mmHg 91%
    03:00 +20°C° 0 mm 0 mps 698 mmHg 90%
    04:00 +22°C° 0.1 mm 1 mps 698 mmHg 91%
    05:00 +22°C° 0.1 mm 1 mps 698 mmHg 91%
    06:00 +22°C° 0.1 mm 1 mps 698 mmHg 92%
    07:00 +24°C° 0.1 mm 1 mps 699 mmHg 85%
    08:00 +26°C° 0.1 mm 2 mps 699 mmHg 79%
    09:00 +27°C° 0 mm 1 mps 700 mmHg 71%
    10:00 +29°C° 0.7 mm 1 mps 700 mmHg 66%
    11:00 +30°C° 0.7 mm 1 mps 699 mmHg 61%
    12:00 +32°C° 0.7 mm 1 mps 699 mmHg 57%
    13:00 +31°C° 1.8 mm 1 mps 698 mmHg 62%
    14:00 +29°C° 1.8 mm 1 mps 698 mmHg 67%
    15:00 +28°C° 1.8 mm 2 mps 697 mmHg 71%
    16:00 +28°C° 0.9 mm 1 mps 697 mmHg 74%
    17:00 +27°C° 0.9 mm 1 mps 697 mmHg 77%
    18:00 +24°C° 0.9 mm 0 mps 697 mmHg 80%
    19:00 +23°C° 0.1 mm 0 mps 697 mmHg 81%
    20:00 +25°C° 0.1 mm 1 mps 697 mmHg 82%
    21:00 +24°C° 0.1 mm 1 mps 698 mmHg 82%
    22:00 +22°C° 0.1 mm 0 mps 698 mmHg 83%
    23:00 +22°C° 0.1 mm 0 mps 698 mmHg 83%

    Tomorrow, 20 November, Wednesday

    Time Temperature Precipitation Wind Pressure Humidity
    00:00 +22°C° 0.1 mm 0 mps 698 mmHg 83%
    01:00 +22°C° 0 mm 0 mps 698 mmHg 84%
    02:00 +21°C° 0 mm 0 mps 698 mmHg 85%
    03:00 +21°C° 0 mm 0 mps 697 mmHg 86%
    04:00 +21°C° 0 mm 0 mps 697 mmHg 87%
    05:00 +23°C° 0 mm 1 mps 698 mmHg 88%
    06:00 +23°C° 0 mm 1 mps 698 mmHg 88%
    07:00 +24°C° 0.4 mm 1 mps 698 mmHg 85%
    08:00 +25°C° 0.4 mm 1 mps 699 mmHg 81%
    09:00 +27°C° 0.4 mm 1 mps 699 mmHg 77%
    10:00 +28°C° 1.2 mm 1 mps 699 mmHg 70%
    11:00 +30°C° 1.2 mm 1 mps 699 mmHg 63%
    12:00 +32°C° 1.2 mm 1 mps 699 mmHg 56%
    13:00 +31°C° 1.5 mm 1 mps 698 mmHg 61%
    14:00 +30°C° 1.5 mm 1 mps 697 mmHg 66%
    15:00 +29°C° 1.5 mm 2 mps 697 mmHg 71%
    16:00 +28°C° 3 mm 1 mps 697 mmHg 75%
    17:00 +27°C° 3 mm 1 mps 696 mmHg 79%
    18:00 +24°C° 3 mm 0 mps 696 mmHg 83%
    19:00 +25°C° 0.3 mm 1 mps 696 mmHg 83%
    20:00 +25°C° 0.3 mm 1 mps 697 mmHg 84%
    21:00 +24°C° 0.3 mm 1 mps 697 mmHg 84%
    22:00 +24°C° 0 mm 1 mps 697 mmHg 85%
    23:00 +23°C° 0 mm 1 mps 697 mmHg 86%

    Day after tomorrow, 21 November, Thursday

    Time Temperature Precipitation Wind Pressure Humidity
    00:00 +23°C° 0 mm 1 mps 697 mmHg 87%
    01:00 +23°C° 0 mm 1 mps 696 mmHg 87%
    02:00 +22°C° 0 mm 1 mps 696 mmHg 88%
    03:00 +22°C° 0 mm 1 mps 696 mmHg 88%
    04:00 +22°C° 0 mm 1 mps 696 mmHg 88%
    05:00 +22°C° 0 mm 1 mps 696 mmHg 88%
    06:00 +22°C° 0 mm 1 mps 697 mmHg 88%
    07:00 +24°C° 0.3 mm 1 mps 697 mmHg 83%
    08:00 +26°C° 0.3 mm 1 mps 698 mmHg 78%
    09:00 +27°C° 0.3 mm 1 mps 699 mmHg 72%
    10:00 +28°C° 0.5 mm 1 mps 699 mmHg 68%
    11:00 +29°C° 0.5 mm 2 mps 698 mmHg 63%
    12:00 +30°C° 0.5 mm 2 mps 698 mmHg 59%
    13:00 +30°C° 1.2 mm 1 mps 697 mmHg 61%
    14:00 +30°C° 1.2 mm 1 mps 697 mmHg 64%
    15:00 +29°C° 1.2 mm 1 mps 696 mmHg 66%
    16:00 +28°C° 1.2 mm 1 mps 696 mmHg 71%
    17:00 +27°C° 1.2 mm 1 mps 696 mmHg 75%
    18:00 +26°C° 1.2 mm 1 mps 695 mmHg 79%
    19:00 +25°C° 0.1 mm 1 mps 696 mmHg 80%
    20:00 +24°C° 0.1 mm 1 mps 696 mmHg 81%
    21:00 +24°C° 0.1 mm 1 mps 696 mmHg 82%
    22:00 +23°C° 0 mm 1 mps 696 mmHg 83%
    23:00 +23°C° 0 mm 1 mps 696 mmHg 84%

    22 November, Friday

    Time Temperature Precipitation Wind Pressure Humidity
    00:00 +23°C° 0 mm 1 mps 697 mmHg 84%
    01:00 +22°C° 0 mm 1 mps 696 mmHg 86%
    02:00 +22°C° 0 mm 1 mps 696 mmHg 87%
    03:00 +22°C° 0 mm 1 mps 695 mmHg 89%
    04:00 +22°C° 0.2 mm 1 mps 696 mmHg 89%
    05:00 +22°C° 0.2 mm 1 mps 696 mmHg 90%
    06:00 +22°C° 0.2 mm 1 mps 696 mmHg 90%
    07:00 +23°C° 0.5 mm 1 mps 697 mmHg 85%
    08:00 +25°C° 0.5 mm 2 mps 697 mmHg 80%
    09:00 +26°C° 0.5 mm 2 mps 698 mmHg 75%
    10:00 +27°C° 0.4 mm 2 mps 698 mmHg 71%
    11:00 +28°C° 0.4 mm 2 mps 698 mmHg 67%
    12:00 +29°C° 0.4 mm 3 mps 698 mmHg 63%
    13:00 +29°C° 0.3 mm 2 mps 697 mmHg 63%
    14:00 +29°C° 0.3 mm 2 mps 697 mmHg 64%
    15:00 +29°C° 0.3 mm 2 mps 697 mmHg 64%
    16:00 +28°C° 0.3 mm 2 mps 696 mmHg 69%
    17:00 +27°C° 0.3 mm 2 mps 696 mmHg 74%
    18:00 +26°C° 0.3 mm 2 mps 696 mmHg 79%
    19:00 +25°C° 0 mm 2 mps 696 mmHg 81%
    20:00 +24°C° 0 mm 2 mps 697 mmHg 82%
    21:00 +23°C° 0 mm 2 mps 697 mmHg 84%
    22:00 +23°C° 0 mm 2 mps 697 mmHg 84%
    23:00 +23°C° 0 mm 2 mps 697 mmHg 83%

    23 November, Saturday

    Time Temperature Precipitation Wind Pressure Humidity
    00:00 +22°C° 0 mm 1 mps 697 mmHg 83%
    01:00 +22°C° 0.3 mm 1 mps 696 mmHg 83%
    02:00 +22°C° 0.3 mm 1 mps 696 mmHg 84%
    03:00 +22°C° 0.3 mm 1 mps 696 mmHg 85%
    04:00 +22°C° 0.1 mm 1 mps 696 mmHg 85%
    05:00 +20°C° 0.1 mm 0 mps 696 mmHg 85%
    06:00 +20°C° 0.1 mm 0 mps 696 mmHg 85%
    07:00 +24°C° 0.3 mm 1 mps 697 mmHg 81%
    08:00 +25°C° 0.3 mm 1 mps 698 mmHg 77%
    09:00 +27°C° 0.3 mm 1 mps 698 mmHg 72%
    10:00 +28°C° 1 mm 2 mps 698 mmHg 70%
    11:00 +29°C° 1 mm 2 mps 698 mmHg 67%
    12:00 +29°C° 1 mm 3 mps 698 mmHg 65%
    13:00 +29°C° 0.5 mm 3 mps 698 mmHg 65%
    14:00 +29°C° 0.5 mm 3 mps 697 mmHg 65%
    15:00 +29°C° 0.5 mm 3 mps 696 mmHg 65%
    16:00 +28°C° 0.8 mm 2 mps 696 mmHg 70%
    17:00 +27°C° 0.8 mm 2 mps 696 mmHg 75%
    18:00 +25°C° 0.8 mm 1 mps 696 mmHg 80%
    19:00 +25°C° 0 mm 1 mps 696 mmHg 81%
    20:00 +24°C° 0 mm 1 mps 697 mmHg 82%
    21:00 +24°C° 0 mm 1 mps 697 mmHg 83%
    22:00 +23°C° 0 mm 1 mps 697 mmHg 84%
    23:00 +23°C° 0 mm 1 mps 697 mmHg 84%

    24 November, Sunday

    Time Temperature Precipitation Wind Pressure Humidity
    00:00 +23°C° 0 mm 1 mps 697 mmHg 84%
    01:00 +23°C° 0.1 mm 1 mps 697 mmHg 84%
    02:00 +23°C° 0.1 mm 1 mps 696 mmHg 84%
    03:00 +23°C° 0.1 mm 1 mps 696 mmHg 85%
    04:00 +23°C° 0 mm 1 mps 696 mmHg 84%
    05:00 +23°C° 0 mm 1 mps 696 mmHg 84%
    06:00 +23°C° 0 mm 1 mps 696 mmHg 83%
    07:00 +24°C° 0 mm 1 mps 697 mmHg 79%
    08:00 +26°C° 0 mm 1 mps 698 mmHg 75%
    09:00 +27°C° 0 mm 2 mps 698 mmHg 70%
    10:00 +28°C° 0.2 mm 2 mps 698 mmHg 66%
    11:00 +30°C° 0.2 mm 3 mps 698 mmHg 61%
    12:00 +31°C° 0.2 mm 3 mps 698 mmHg 57%
    13:00 +31°C° 0.7 mm 3 mps 697 mmHg 59%
    14:00 +30°C° 0.7 mm 3 mps 696 mmHg 61%
    15:00 +30°C° 0.7 mm 3 mps 696 mmHg 62%
    16:00 +29°C° 0.4 mm 3 mps 696 mmHg 67%
    17:00 +27°C° 0.4 mm 2 mps 695 mmHg 72%
    18:00 +26°C° 0.4 mm 1 mps 695 mmHg 76%
    19:00 +26°C° 0 mm 1 mps 696 mmHg 78%
    20:00 +25°C° 0 mm 1 mps 696 mmHg 79%
    21:00 +24°C° 0 mm 1 mps 696 mmHg 80%
    22:00 +24°C° 0 mm 1 mps 696 mmHg 80%
    23:00 +24°C° 0 mm 1 mps 696 mmHg 81%
    Show more